Tracking 31023 objects as of 19-Jul-2025
HD Live streaming from Space Station
objects crossing your sky now

STARLINK-2706

Track STARLINK-2706 now!
10-day predictions
STARLINK-2706 is classified as:


NORAD ID: 48481
Int'l Code: 2021-040BF
Perigee: 553.5 km
Apogee: 555.2 km
Inclination: 53.1 °
Period: 95.6 minutes
Semi major axis: 6925 km
RCS: Unknown
Launch date: May 9, 2021
Source: United States (US)
Launch site: AIR FORCE EASTERN TEST RANGE (AFETR)
Your satellite tracking list
Your tracking list is empty




NASA's NSSDC Master Catalog

Two Line Element Set (TLE):
1 48481U 21040BF  25200.18275826  .00000523  00000-0  54032-4 0  9998
2 48481  53.0545 170.1515 0001280  76.9394 283.1738 15.06400165232421
Source of the keplerian elements: AFSPC